GW3735 Weather Reports


time (UTC)temp
C
wind
direction
speed
KPH
gust
KPH
rain 1hr
cm
rain 24hr
cm
rain mn
cm
humidity
%
barometer
mb
20260906224606 18 337 12.9 19.3 0.00 0.05 0.05 67 1016.6
20260906223107 18 355 14.5 19.3 0.00 0.05 0.05 68 1016.7
20260906221602 18 350 11.3 20.9 0.00 0.05 0.05 68 1016.8
20260906220112 18 11 12.9 19.3 0.00 0.05 0.05 68 1016.6
20260906214606 18 22 14.5 27.4 0.00 0.05 0.05 69 1016.6
20260906213115 18 44 8.0 19.3 0.00 0.05 0.05 68 1016.7
20260906211623 18 15 6.4 16.1 0.00 0.05 0.05 68 1016.8
20260906210138 18 11 11.3 19.3 0.00 0.05 0.05 69 1016.8
20260906204629 17 45 9.7 19.3 0.00 0.05 0.05 69 1016.9
20260906203127 17 19 8.0 17.7 0.00 0.05 0.05 69 1016.9
20260906201607 17 31 14.5 19.3 0.00 0.05 0.05 69 1017.0
20260906200127 17 53 11.3 16.1 0.00 0.05 0.05 69 1017.3
20260906194627 17 56 11.3 22.5 0.00 0.05 0.05 71 1017.3
20260906193124 17 18 12.9 25.7 0.00 0.05 0.05 71 1017.2
20260906191628 17 40 17.7 27.4 0.00 0.05 0.05 72 1017.2
20260906190127 16 28 17.7 32.2 0.00 0.05 0.05 74 1017.5
20260906184630 16 42 20.9 29.0 0.00 0.05 0.05 74 1017.3
20260906183125 16 40 27.4 37.0 0.00 0.05 0.05 76 1017.6
20260906181631 15 57 29.0 40.2 0.00 0.05 0.05 81 1017.4
20260906180132 14 24 24.1 30.6 0.00 0.05 0.05 85 1018.1
20260906174629 13 355 22.5 29.0 0.03 0.05 0.05 86 1018.7
20260906173126 14 360 14.5 17.7 0.03 0.05 0.05 89 1018.9
20260906171627 13 20 16.1 19.3 0.03 0.05 0.05 90 1019.0
20260906170128 13 319 8.0 14.5 0.00 0.03 0.03 90 1018.9
20260906164628 13 347 8.0 14.5 0.03 0.03 0.03 91 1018.9
20260906163129 13 350 11.3 16.1 0.03 0.03 0.03 91 1018.9
20260906161621 12 355 11.3 20.9 0.03 0.03 0.03 90 1019.1
20260906160129 12 347 19.3 27.4 0.03 0.03 0.03 89 1019.1
20260906154624 12 339 20.9 25.7 0.00 0.00 0.00 86 1019.2
20260906153041 14 351 17.7 24.1 0.00 0.00 0.00 83 1019.6
20260906151550 15 59 0.0 8.0 0.00 0.00 0.00 83 1020.0
20260906150036 15 40 6.4 11.3 0.00 0.00 0.00 83 1019.9
20260906144546 15 81 11.3 17.7 0.00 0.00 0.00 82 1019.9
20260906143042 15 36 9.7 25.7 0.00 0.00 0.00 82 1019.7
20260906141537 15 47 17.7 27.4 0.00 0.00 0.00 82 1019.3
20260906140036 15 65 14.5 22.5 0.00 0.00 0.00 83 1019.6
20260906134536 14 71 11.3 17.7 0.00 0.00 0.00 84 1019.6
20260906133044 13 44 11.3 16.1 0.00 0.00 0.00 85 1019.5
20260906131538 13 37 9.7 16.1 0.00 0.00 0.00 86 1019.5
20260906130038 13 15 16.1 20.9 0.00 0.00 0.00 86 1019.4
20260906124543 13 15 12.9 17.7 0.00 0.00 0.00 87 1019.7
20260906123041 13 13 16.1 27.4 0.00 0.00 0.00 87 1019.5
20260906121542 12 15 19.3 24.1 0.00 0.00 0.00 87 1019.2
20260906120038 12 360 19.3 25.7 0.00 0.00 0.00 87 1019.3
20260906114540 12 15 19.3 27.4 0.00 0.00 0.00 87 1019.2
20260906113049 12 22 22.5 30.6 0.00 0.00 0.00 86 1018.9
20260906111541 13 17 24.1 29.0 0.00 0.00 0.00 86 1018.9
20260906110037 12 5 24.1 29.0 0.00 0.00 0.00 86 1019.3
20260906104538 12 9 22.5 30.6 0.00 0.00 0.00 86 1019.4
20260906103049 12 14 25.7 35.4 0.00 0.00 0.00 86 1019.3
20260906101540 12 5 22.5 32.2 0.00 0.00 0.00 86 1019.5
20260906100040 12 22 25.7 33.8 0.00 0.00 0.00 86 1019.3
20260906094539 12 360 29.0 37.0 0.00 0.00 0.00 86 1019.1
20260906093050 12 355 25.7 32.2 0.00 0.00 0.00 85 1019.3
20260906091542 12 5 27.4 35.4 0.00 0.00 0.00 84 1019.1
20260906090048 12 352 32.2 40.2 0.00 0.00 0.00 84 1019.2
20260906084541 13 5 25.7 33.8 0.00 0.00 0.00 83 1019.6
20260906083037 13 10 25.7 35.4 0.00 0.00 0.00 83 1019.6
20260906081536 13 23 24.1 32.2 0.00 0.00 0.00 81 1019.8
20260906080039 13 16 27.4 37.0 0.00 0.00 0.00 81 1019.6
20260906074537 13 31 25.7 37.0 0.00 0.00 0.00 80 1019.7
20260906073037 13 28 27.4 33.8 0.00 0.00 0.00 79 1019.9
20260906071539 13 20 29.0 33.8 0.00 0.00 0.00 79 1019.9
20260906070037 13 11 29.0 38.6 0.00 0.00 0.00 79 1020.1
20260906064543 14 22 27.4 32.2 0.00 0.00 0.00 78 1020.3
20260906063036 14 355 29.0 35.4 0.00 0.00 0.00 78 1020.4
20260906061546 14 22 27.4 37.0 0.00 0.00 0.00 77 1020.3
20260906060043 14 26 27.4 35.4 0.00 0.00 0.00 77 1020.3
20260906054546 14 24 27.4 40.2 0.00 0.00 0.00 76 1020.4
20260906053044 14 14 32.2 41.8 0.00 0.00 0.00 76 1020.0
20260906051544 14 10 30.6 41.8 0.00 0.00 0.00 74 1020.0
20260906050045 15 22 29.0 40.2 0.00 0.00 0.00 73 1020.1
20260906044545 15 360 32.2 41.8 0.00 0.00 0.00 71 1020.5
20260906043043 15 5 29.0 40.2 0.00 0.00 0.00 70 1019.8
20260906041551 15 16 30.6 46.7 0.00 0.00 0.00 68 1019.6
20260906040047 15 13 35.4 41.8 0.00 0.00 0.00 68 1019.1
20260906034545 15 19 29.0 43.5 0.00 0.00 0.00 67 1019.7
20260906033055 15 17 32.2 46.7 0.00 0.00 0.00 67 1019.8
20260906031548 16 5 37.0 45.1 0.00 0.00 0.00 66 1019.9
20260906030059 15 26 30.6 43.5 0.00 0.00 0.00 66 1018.9
20260906024556 15 15 32.2 40.2 0.00 0.00 0.00 65 1018.2
20260906023051 16 13 30.6 46.7 0.00 0.00 0.00 65 1018.5
20260906021551 16 15 33.8 45.1 0.00 0.00 0.00 63 1018.7
20260906014557 17 11 29.0 40.2 0.00 0.00 0.00 59 1018.7
20260906013054 18 5 25.7 33.8 0.00 0.00 0.00 56 1018.5
20260906011550 18 16 29.0 40.2 0.00 0.00 0.00 54 1018.4
20260906010050 20 9 29.0 37.0 0.00 0.00 0.00 50 1018.6
20260906004549 20 19 30.6 38.6 0.00 0.00 0.00 48 1018.4
20260906003054 22 5 25.7 35.4 0.00 0.00 0.00 43 1018.6
20260906001553 23 30 19.3 24.1 0.00 0.00 0.00 35 1018.7
20260906000052 23 69 17.7 24.1 0.00 0.00 0.00 34 1018.8
20260905234556 23 68 12.9 24.1 0.00 0.00 0.00 35 1019.1
20260905233050 23 61 11.3 19.3 0.00 0.00 0.00 35 1019.2
20260905231552 23 86 9.7 20.9 0.00 0.00 0.00 34 1018.9
20260905230053 24 81 1.6 19.3 0.00 0.00 0.00 34 1018.8